Regional Weather Roundup
Issued by NWS Little Rock, AR

Home | Current Version | Previous Version | Text Only | Print | Product List | Glossary On
Versions: 1 2 3 4 5 6 7 8 9 10 11 12 13 14 15 16 17 18 19 20 21 22 23 24 25 26 27 28 29 30 31 32
000
ASUS44 KLZK 120705
RWRLZK

WEATHER ROUNDUP FOR ARKANSAS
NATIONAL WEATHER SERVICE LITTLE ROCK AR
100 AM CST TUE DEC 12 2017

NOTE: "FAIR" INDICATES FEW OR NO CLOUDS BELOW 12,000 FEET WITH NO
SIGNIFICANT WEATHER AND/OR OBSTRUCTIONS TO VISIBILITY.

ARZ001-003-010-029-120800-
NORTHWEST ARKANSAS

CITY           SKY/WX    TMP DP  RH WIND       PRES   REMARKS
FAYETTEVILLE   CLEAR     42  31  64 NW17      30.22R
FORT SMITH     CLEAR     50  30  46 N14G26    30.22R
HARRISON       CLOUDY    44  31  60 NW18G28   30.14R
BENTONVILLE    MOCLDY    42  30  62 NW10      30.24R
ROGERS         CLOUDY    42  30  62 N14G25    30.22R
SILOAM SPGS    CLEAR     41  30  65 N21G26    30.24R
HIGHFILL       MOCLDY    42  30  62 NW14G25   30.22R
$$

ARZ004-005-016-120800-
NORTH CENTRAL ARKANSAS

CITY           SKY/WX    TMP DP  RH WIND       PRES   REMARKS
BATESVILLE     PTCLDY    50  29  44 NW8G16    30.09R
MTN HOME       CLOUDY    47  32  56 N7G17     30.10R
$$

ARZ040-041-120800-
WEST CENTRAL ARKANSAS

CITY           SKY/WX    TMP DP  RH WIND       PRES   REMARKS
MENA           PTCLDY    52  28  40 NW10G16   30.18R
MOUNT IDA      CLEAR     52  27  38 NW10G20   30.12R
$$

ARZ009-017-025-026-028-120800-
NORTHEAST ARKANSAS

CITY           SKY/WX    TMP DP  RH WIND       PRES   REMARKS
JONESBORO      PTCLDY    49  32  52 NW10      30.05R
NEWPORT        MOCLDY    48  31  51 NW13      30.08R
WALNUT RIDGE   CLEAR     44  30  57 NW10      30.07R
BLYTHEVILLE    CLOUDY    45  33  63 NW13      30.02R
$$

ARZ022-023-033-042-044-120800-
CENTRAL ARKANSAS

CITY           SKY/WX    TMP DP  RH WIND       PRES   REMARKS
LITTLE ROCK    MOCLDY    52  28  39 N15       30.10R
N LITTLE ROCK    N/A     52  29  41 N10       30.12R
JACKSONVILLE   MOCLDY    53  28  37 NW9G17    30.09R
SEARCY         MOCLDY    52  28  39 NW9       30.09R
HOT SPRINGS    CLEAR     54  27  35 NW8G23    30.12R
RUSSELLVILLE   CLEAR     52  27  38 NW18G25   30.13R
CLINTON        FAIR      50  28  43 NW9G16    30.11S
$$

ARZ036-120800-
EAST ARKANSAS

CITY           SKY/WX    TMP DP  RH WIND       PRES   REMARKS
WEST MEMPHIS   CLOUDY    48  32  53 N7        30.02R
$$

ARZ050-053-066-070-073-120800-
SOUTHWEST ARKANSAS

CITY           SKY/WX    TMP DP  RH WIND       PRES   REMARKS
ARKADELPHIA    FAIR      55  26  32 NW14      30.11R
CAMDEN         PTCLDY    54  19  26 NW8       30.10R
TEXARKANA      CLEAR     52  21  29 NW12      30.15R
EL DORADO      CLEAR     51  26  37 NW8       30.11R
DE QUEEN       CLEAR     54  26  34 N15G23    30.15R
$$

ARZ056-057-069-120800-
SOUTHEAST ARKANSAS

CITY           SKY/WX    TMP DP  RH WIND       PRES   REMARKS
PINE BLUFF     CLEAR     50  24  36 NW8       30.08R
STUTTGART      CLOUDY    51  30  44 NW16      30.07R
MONTICELLO     PTCLDY    47  27  45 CALM      30.07R

$$






USA.gov is the U.S. government's official web portal to all federal, state and local government web resources and services.